Munising, MI

5:06 AM EDT on July 23, 2017 (GMT -0400)
Munising

Weather History for KP53 - June, 2013

Change the Weather History Date:

Wednesday, June 26, 2013

  Actual Average (KISQ) Record (KISQ)
Temperature  
Mean Temperature 74 °F -  
Max Temperature 89 °F 71 °F 92 °F (1964)
Min Temperature 60 °F 52 °F 37 °F (2004)
Cooling Degree Days 10    
Growing Degree Days 24 (Base 50)    
Moisture  
Dew Point 61 °F    
Average Humidity 69    
Maximum Humidity 90    
Minimum Humidity 34    
Precipitation  
Precipitation 0.44 in - - ()
Sea Level Pressure  
Sea Level Pressure 29.76 in    
Wind  
Wind Speed 6 mph (SSW)    
Max Wind Speed 32 mph    
Max Gust Speed 43 mph    
Averages and records for this station are not official NWS values.
T = Trace of Precipitation, MM = Missing Value Source: NWS Daily Summary

Daily Weather History Graph

Daily Weather History Graph

Search for Another Location

Airport or City:

Trip Planner

Search our weather history database for the weather conditions in past years. The results will help you decide how hot, cold, wet, or windy it might be!

Date:

Astronomy

Jun. 26, 2013 Rise Set
Actual Time 5:55 AM EDT 9:43 PM EDT
Civil Twilight 5:16 AM EDT 10:22 PM EDT
Nautical Twilight 4:23 AM EDT 11:14 PM EDT
Astronomical Twilight 3:08 AM EDT 12:30 AM EDT
Moon 11:49 PM EDT (6/26) 10:00 AM EDT (6/26)
Length of Visible Light 17h 05m
Length of Day
15h 47m
Waning Gibbous, 85% of the Moon is Illuminated
Jun 26
Waning Gibbous
Jun 30
Last Quarter
Jul 8
New
Jul 15
First Quarter
Jul 22
Full

Hourly Weather History & Observations

Time (EDT) Temp. Heat Index Dew Point Humidity Pressure Visibility Wind Dir Wind Speed Gust Speed Precip Events Conditions
12:56 AM 62.1 °F - 57.0 °F 84% 29.80 in - Calm Calm - N/A   Unknown
1:56 AM 63.0 °F - 59.0 °F 87% 29.78 in - Calm Calm - N/A   Unknown
2:56 AM 66.0 °F - 62.1 °F 87% 29.78 in - Calm Calm - N/A   Unknown
3:56 AM 66.0 °F - 62.1 °F 87% 29.78 in - SSW 4.6 mph - N/A   Unknown
4:56 AM 64.9 °F - 61.0 °F 87% 29.78 in - SSW 6.9 mph - N/A   Unknown
5:56 AM 64.0 °F - 60.1 °F 87% 29.77 in - SSW 5.8 mph - N/A   Unknown
6:56 AM 66.0 °F - 62.1 °F 87% 29.77 in - South 6.9 mph - N/A   Unknown
7:56 AM 69.1 °F - 63.0 °F 81% 29.77 in - South 8.1 mph - N/A   Unknown
8:56 AM 73.9 °F - 64.9 °F 73% 29.78 in - South 5.8 mph - N/A   Unknown
9:56 AM 78.1 °F - 66.0 °F 66% 29.77 in - SSW 8.1 mph - N/A   Unknown
10:56 AM 81.0 °F 82.7 °F 64.9 °F 58% 29.77 in - Variable 6.9 mph - N/A   Unknown
11:56 AM 84.0 °F 85.4 °F 64.0 °F 51% 29.75 in - South 9.2 mph - N/A   Unknown
12:56 PM 84.9 °F 85.4 °F 62.1 °F 46% 29.73 in - South 9.2 mph 16.1 mph N/A   Unknown
1:56 PM 88.0 °F 87.1 °F 59.0 °F 37% 29.73 in - SSW 11.5 mph 18.4 mph N/A   Unknown
2:56 PM 89.1 °F 87.7 °F 57.0 °F 34% 29.72 in - South 16.1 mph 25.3 mph N/A   Unknown
3:56 PM 88.0 °F 88.4 °F 62.1 °F 42% 29.72 in - South 10.4 mph 17.3 mph N/A   Unknown
4:56 PM 84.9 °F 84.8 °F 60.1 °F 43% 29.73 in - South 12.7 mph 19.6 mph N/A   Unknown
5:56 PM 84.9 °F 84.4 °F 59.0 °F 41% 29.72 in - South 11.5 mph 21.9 mph N/A   Unknown
6:56 PM 82.0 °F 83.1 °F 63.0 °F 52% 29.72 in - South 11.5 mph 16.1 mph N/A   Unknown
7:56 PM 75.9 °F - 62.1 °F 62% 29.78 in - NNW 32.2 mph 42.6 mph N/A   Squalls
8:14 PM 64.4 °F - 55.4 °F 73% 29.82 in - NNW 17.3 mph 27.6 mph N/A   Unknown
8:56 PM 60.1 °F - 55.9 °F 86% 29.81 in - NNW 9.2 mph - 0.03 in   Unknown
9:56 PM 63.0 °F - 57.9 °F 84% 29.80 in - Calm Calm - 0.03 in   Unknown
10:56 PM 63.0 °F - 60.1 °F 90% 29.77 in - Variable 4.6 mph - 0.30 in   Unknown
11:56 PM 62.1 °F - 59.0 °F 90% 29.75 in - WNW 15.0 mph 23.0 mph 0.08 in   Unknown